sat.trackr.live / text

‹ back to catalog

ONEWEB-0204

NORAD 48225 · 2021-031R

PAYLOAD ACTIVE UNKNOWN

§ Identity

Operator
Country
UK
Launch date
2021-04-25
Launch site
VOSTO
Launch vehicle
Mass (kg)
RCS (m²)

Purposes: comms

External: N2YO · Heavens-Above · Gunter

§ Orbital elements

Epoch: 2026-09-20T00:06:33.761952Z

Period
109.55 min
Inclination
87.8897°
Eccentricity
0.0002151
Mean motion
13.14503396 rev/d
Perigee alt
1,204.2 km
Apogee alt
1,207.4 km
Semi-major
7,583.9 km
B*
4.6903e-4
RAAN
270.7927°
Arg perigee
98.6905°
Mean anomaly
261.4469°
Rev number
26,071

§ Raw data

ONEWEB-02041 48225U 21031R   26263.00455743  .00000187  00000+0  46903-3 0  99952 48225  87.8897 270.7927 0002151  98.6905 261.4469 13.14503396260713

JSON: /api/v1/satellites/48225 · /tle

For live sub-satellite position, see the globe view (requires WebGL).

§ Visibility from observer

Set your observer location to see the next 7 days of passes ≥ 10°. The values pass through the URL so the page stays shareable.

No JS? Fill the form by hand. The geolocation button needs JavaScript.